Flag for Germany Weather past 2 weeks in Schweinfurt, Bavaria, Germany

Now
46 °F

Clear.


Feels Like: 44 °F
Forecast: 32 / 58 °F
Wind: 3 mph from East

Location: Wuerzburg

Current Time: Apr 18, 2015 at 10:37:00 PM

Latest Report: Apr 18, 2015 at 10:00 PM


Visibility: 44 mi

Pressure: 30.28 "Hg

Humidity: 47%

Dew point: 26 °F

Location of SchweinfurtLocation

Historic Weather in Schweinfurt — Graph

°F

Schweinfurt temperature yesterday

Maximum temperature yesterday: 58 °F (at 12:00 AM)
Minimum temperature yesterday: 45 °F (at 11:00 PM)
Average temperature yesterday: 52 °F

Past Weeks' High & Low Weather Summary

 TemperatureHumidityPressure
High76 °F (Apr 15, 4:00 PM)93% (Apr 9, 7:00 AM)30.68 "Hg (Apr 9, 7:00 AM)
Low30 °F (Apr 7, 6:00 AM)20% (Apr 15, 7:00 PM)29.86 "Hg (Apr 16, 7:00 PM)
Average50 °F57%30.26 "Hg
* Reported Apr 3 9:00 PM — Apr 18 9:00 PM, Schweinfurt, Weather by CustomWeather, © 2015

Note: Actual official high and low records may vary slightly from our data, if they occured in-between our weather recording intervals... More about our weather records

Advertising

Schweinfurt weather history for previous 24 hours

 ConditionsComfort  
Time TempWeatherWind HumidityBarometerVisibility
9:00 PM
Sat, Apr 18
47 °FClear.3 mph44%30.27 "Hg37 mi
8:00 PM49 °FPassing clouds.3 mph40%30.26 "Hg37 mi
7:00 PM52 °FPassing clouds.2 mph33%30.26 "Hg37 mi
6:00 PM53 °FPassing clouds.5 mph38%30.26 "Hg37 mi
5:00 PM52 °FPassing clouds.3 mph36%30.27 "Hg37 mi
4:00 PM54 °FScattered clouds.2 mph34%30.28 "Hg37 mi
3:00 PM54 °FScattered clouds.5 mph35%30.29 "Hg37 mi
2:00 PM51 °FScattered clouds.5 mph39%30.30 "Hg37 mi
1:00 PM51 °FScattered clouds.7 mph44%30.30 "Hg37 mi
12:00 PM51 °FScattered clouds.5 mph43%30.30 "Hg31 mi
11:00 AM47 °FScattered clouds.5 mph53%30.30 "Hg28 mi
10:00 AM47 °FPassing clouds.3 mph54%30.29 "Hg25 mi
9:00 AM44 °FPassing clouds.2 mph60%30.29 "Hg25 mi
8:00 AM40 °FScattered clouds.1 mph68%30.27 "Hg25 mi
7:00 AM36 °FPassing clouds.2 mph78%30.27 "Hg25 mi
6:00 AM37 °FPassing clouds.2 mph75%30.24 "Hg25 mi
5:00 AM37 °FClear.2 mph73%30.24 "Hg31 mi
4:00 AM39 °FClear.3 mph68%30.22 "Hg34 mi
3:00 AM40 °FClear.2 mph66%30.21 "Hg37 mi
2:00 AM41 °FClear.2 mph60%30.20 "Hg40 mi
1:00 AM42 °FClear.2 mph59%30.19 "Hg43 mi
12:00 AM42 °FClear.2 mph58%30.17 "Hg43 mi
11:00 PM
Fri, Apr 17
45 °FClear.2 mph51%30.14 "Hg43 mi
10:00 PM46 °FClear.2 mph50%30.12 "Hg43 mi
Weather by CustomWeather, © 2015

See weather overviewHow to use our weather pages